Content
SEND FEEDBACK

Daily
Averages
Monthly
Summary
Netherlands

AMSTERDAM, NETHERLANDS


Home > Europe > Netherlands
Elevation: 7 feet     Latitude: 52 18N     Longitude: 004 46E

WEATHER
 
SELECT A DAY
Number of Records: 311,497;   Date Range: 7/1/96 - 11/22/14
 
SHARE

PRINT THIS DATA

[ ← Previous Day ]
WEATHER ALMANAC - FEBRUARY 5, 2013
[ Next Day → ]
[ °C ]   °F
Weather ElementAverageHighLow
Temperature38.8 °F44.6 °F (12:55 am)33.8 °F (5:25 am)
Dewpoint32.3 °F37.4 °F (12:55 am)28 °F (7:00 pm)
Humidity76.6 %100 % (5:25 am)58 % (4:00 pm)
Barometer29.44 in29.67 in (1:00 am)29.33 in (9:55 pm)
Wind Speed18.7 mph26.5 mph (1:25 am)
Wind Gust29.9 mph (10:25 am)
Weather ElementAverage
Visibility7.3 mi
Wind DirectionWSW (242 °)

Weather ElementTotal
Precipitation---
Heating Degree Days25.8 (Base 65)
Averaged from 50 records on February 5, 2013
WEATHER CONDITIONS BREAKOUT
WIND DIRECTION BREAKOUT
WEATHER BY HOUR - FEBRUARY 5, 2013
[ °C ]   °F
Local TimeTemperatureDewpointHumidityBarometerVisibilityWind DirectionWind SpeedGust SpeedPrecipitationEventsConditions
12:55 AM44.6 °F37.4 °F76 %29.65 in6.2 miWSW (240°)24.2 mphPartly Cloudy
1:00 AM44.0 °F37.0 °F68 %29.67 in7.0 miWSW (240°)24.6 mphN Precipitation
1:25 AM44.6 °F37.4 °F76 %29.65 in6.2 miWSW (240°)26.5 mphMostly Cloudy
1:55 AM42.8 °F37.4 °F81 %29.62 in6.2 miWSW (240°)23.0 mphPartly Cloudy
2:25 AM42.8 °F37.4 °F81 %29.59 in6.2 miWSW (240°)24.2 mphPartly Cloudy
2:55 AM42.8 °F37.4 °F81 %29.59 in6.2 miWSW (240°)25.3 mphScattered Clouds
3:25 AM42.8 °F37.4 °F81 %29.56 in6.2 miWSW (240°)24.2 mphScattered Clouds
3:55 AM42.8 °F37.4 °F81 %29.53 in6.2 miSW (230°)23.0 mphScattered Clouds
4:00 AM43.0 °F37.0 °F72 %29.53 in8.0 miWSW (240°)22.4 mphPartly Cloudy
4:55 AM42.8 °F37.4 °F81 %29.44 in6.2 miSW (220°)24.2 mphMostly Cloudy
5:25 AM33.8 °F33.8 °F100 %29.47 in1.9 miWest (280°)24.2 mphRain-Snow-ThunderstormThunderstorms and Snow
5:55 AM33.8 °F33.8 °F100 %29.42 in6.2 miSSW (210°)15.0 mphPartly Cloudy
6:25 AM33.8 °F33.8 °F100 %29.44 in6.2 miSW (220°)12.7 mphMostly Cloudy
6:55 AM39.2 °F35.6 °F87 %29.42 in6.2 miWest (260°)15.0 mphMostly Cloudy
7:00 AM40.0 °F35.0 °F74 %29.44 in15.0 miWest (260°)17.9 mphPartly Cloudy
7:25 AM39.2 °F33.8 °F81 %29.42 in6.2 miWest (270°)20.7 mphRainLight Rain Showers
7:55 AM39.2 °F33.8 °F81 %29.42 in6.2 miWest (270°)24.2 mphMostly Cloudy
8:25 AM37.4 °F30.2 °F75 %29.42 in6.2 miWest (280°)26.5 mphRain-SnowLight Small Hail Showers
9:55 AM35.6 °F32.0 °F87 %29.44 inWNW (290°)24.2 mphSnowSnow Showers
10:00 AM36.0 °F31.0 °F75 %29.46 in7.0 miWNW (290°)20.1 mphSnowLight Snow
10:25 AM37.4 °F32.0 °F81 %29.44 in6.2 miWest (280°)18.4 mph29.9 mphRain-SnowLight Snow Showers
10:55 AM39.2 °F32.0 °F75 %29.44 in6.2 miWest (270°)24.2 mphScattered Clouds
11:25 AM39.2 °F32.0 °F75 %29.44 in6.2 miWest (270°)25.3 mphScattered Clouds
11:55 AM39.2 °F32.0 °F75 %29.44 in6.2 miWest (270°)23.0 mphScattered Clouds
12:25 PM39.2 °F32.0 °F75 %29.44 in6.2 miWest (270°)25.3 mphMostly Cloudy
12:55 PM39.2 °F30.2 °F70 %29.44 in6.2 miWest (260°)23.0 mphMostly Cloudy
1:00 PM40.0 °F31.0 °F62 %29.46 in16.0 miWest (260°)22.4 mphPartly Cloudy
1:25 PM39.2 °F30.2 °F70 %29.44 in6.2 miWest (260°)23.0 mphMostly Cloudy
2:25 PM41.0 °F30.2 °F65 %29.42 in6.2 miWest (270°)25.3 mphMostly Cloudy
2:55 PM39.2 °F30.2 °F70 %29.42 in6.2 miWest (260°)20.7 mphLight Small Hail Showers
3:25 PM39.2 °F30.2 °F70 %29.42 in6.2 miWest (260°)20.7 mphPartly Cloudy
3:55 PM39.2 °F30.2 °F70 %29.39 in6.2 miWest (260°)18.4 mphPartly Cloudy
4:00 PM40.0 °F30.0 °F58 %29.41 in19.0 miWest (260°)17.9 mphN Precipitation
4:25 PM39.2 °F28.4 °F65 %29.39 in6.2 miWest (260°)18.4 mphPartly Cloudy
4:55 PM39.2 °F30.2 °F70 %29.39 in6.2 miWest (260°)16.1 mphPartly Cloudy
5:25 PM39.2 °F30.2 °F70 %29.39 in6.2 miWSW (250°)15.0 mphScattered Clouds
5:55 PM39.2 °F28.4 °F65 %29.39 in6.2 miWSW (250°)15.0 mphScattered Clouds
6:25 PM39.2 °F28.4 °F65 %29.39 in5.0 miWSW (250°)12.7 mphScattered Clouds
6:55 PM37.4 °F28.4 °F70 %29.36 in6.2 miWSW (240°)11.5 mphPartly Cloudy
7:00 PM37.0 °F28.0 °F59 %29.38 in25.0 miWSW (250°)11.2 mphN Precipitation
7:25 PM37.4 °F28.4 °F70 %29.36 in6.2 miWSW (250°)10.4 mphPartly Cloudy
7:55 PM33.8 °F28.4 °F81 %29.36 in6.2 miSSW (210°)6.9 mphScattered Clouds
8:25 PM35.6 °F30.2 °F81 %29.36 in6.2 miSouth (190°)9.2 mphScattered Clouds
8:55 PM35.6 °F30.2 °F81 %29.36 in6.2 miSouth (190°)9.2 mphScattered Clouds
9:25 PM35.6 °F30.2 °F81 %29.36 in6.2 miSouth (170°)10.4 mphScattered Clouds
9:55 PM35.6 °F32.0 °F87 %29.33 in6.2 miSouth (170°)12.7 mphMostly Cloudy
10:00 PM35.0 °F31.0 °F82 %29.36 in11.0 miSouth (180°)13.4 mphRainRain Showers
10:25 PM35.6 °F32.0 °F87 %29.33 in6.2 miSouth (190°)12.7 mphRainLight Rain Showers
10:55 PM35.6 °F30.2 °F81 %29.33 in6.2 miSouth (170°)11.5 mphMostly Cloudy
11:25 PM35.6 °F30.2 °F81 %29.33 in6.2 miSouth (170°)10.4 mphRain-SnowLight Rain
Hourly data recorded from EHAM, located miles away from Amsterdam, Netherlands







STORIES FROM OUR PARTNERS